SCOUT A DEB

Satellite information

Favourite Embed

Satellite Type and Status

DEBRISIN ORBIT

Key statistics

Satellite SCOUT A DEB at a glance.

Uptime

21330

Days in orbit

Revolutions

≈ 14.1

Per day

Orbit

SSO

Sun Synchronous Orbit

Inclination

90.3

Latest

Satellite identification and parameters

Extended collection of information and parameters for SCOUT A DEB.

Object identification

Identified? True

Debris? True

Object name: SCOUT A DEB

International designator: 1967-034C

Object number (NORAD): 2777

Object ID (CCSDS): 2777

Country: UNITED STATES OF AMERICA (US)

Current information (Y/N): Y

RCS size: SMALL

Orbital parameters

Period: 102.469 minutes

Inclination: 90.2688 deg

SMA: 7253.616 km

Apoapsis: 966.934 km

Periapsis: 784.028 km

RAAN: 236.4169 deg

Eccentricy: 0.01260796

Argument of periapsis: 294.6593 deg

Mean anomaly: 64.1502 deg

Mean motion: 14.05306051 rev/day

Mean motion (dot): 0.00001121 rev/day2

B* drag term: 0.00064057432 1/REarth

Two-line elements (TLE)

Creation date: Sept. 5, 2025, 10:27 a.m.

Reference frame: TEME

Reference center: EARTH

Epoch: Sept. 4, 2025, 11:25 p.m. UTC

TLE line 0: 0 SCOUT A DEB

TLE line 1: 1 02777U 67034C 25247.97601058 .00001121 00000-0 64057-3 0 9999

TLE line 2: 2 02777 90.2688 236.4169 0126080 294.6593 64.1502 14.05306051969405

Live tracking on map

Real-time ground track for satellite SCOUT A DEB.

In-orbit conjunctions

A list of the most updated potential collisions computed for object SCOUT A DEB.

Target Orbit TCA Probability of collision Miss distance Type
FEDSAT SSO 2024-09-16 13:34:32 0.0001618415 175.0 (m) PAYLOAD
FENGYUN 1C DEB SSO 2024-09-02 00:26:54 0.0002267735 116.0 (m) DEBRIS

Associated space launch

The Transit-O series of satellites that closely followed the design of Transit 5C-1 were also called “Oscars” (Oscar is the phonetic alphabet for “O”, i. e., operational). They were also called NNS (Navy Navigation Satellite) or shortened NavSat.

SCOUT A DEB was lifted into orbit during the mission ‘Scout A | Transit-O 12’, on board a Scout A space rocket.

The launch took place on April 14, 1967, 3:25 a.m. from Space Launch Complex 5.

For more information about the launch, click the button.

Launch to space Scout A | Transit-O 12
Scout A | Transit-O 12

Agency: N/A

Status: Launch Successful

Launch date: April 14, 1967, 3:25 a.m. UTC

Rocket: Scout A

Launch pad: Space Launch Complex 5

Location: Vandenberg SFB, CA, USA

...

Latest news about this satellite

There are no fresh news available about this satellite. Check back as we update our databases every day.


Newsletter sign-up

Weekly statistics, charts and insights to help you stay on top of the space industry.